| time (UTC) | temp C | wind direction | speed KPH | gust KPH | rain 1hr cm | rain 24hr cm | rain mn cm | humidity % | barometer mb |
| 20260905053102 | 23 | 358 | 0.0 | 4.8 | 0.08 | 0.36 | 0.13 | 90 | 1009.9 |
| 20260905051532 | 23 | 156 | 1.6 | 4.8 | 0.13 | 0.36 | 0.13 | 90 | 1010.0 |
| 20260905050009 | 23 | 284 | 0.0 | 6.4 | 0.13 | 0.36 | 0.13 | 89 | 1010.1 |
| 20260905044549 | 24 | 58 | 1.6 | 6.4 | 0.10 | 0.33 | 0.10 | 88 | 1010.0 |
| 20260905043018 | 25 | 131 | 1.6 | 8.0 | 0.05 | 0.28 | 0.05 | 87 | 1010.1 |
| 20260905041558 | 25 | 181 | 0.0 | 1.6 | 0.00 | 0.23 | 0.00 | 86 | 1010.0 |
| 20260905040031 | 25 | 333 | 0.0 | 0.0 | 0.00 | 0.23 | 0.00 | 87 | 1009.9 |
| 20260905034617 | 25 | 340 | 0.0 | 0.0 | 0.00 | 0.23 | 0.23 | 87 | 1010.0 |
| 20260905033040 | 25 | 338 | 0.0 | 0.0 | 0.00 | 0.23 | 0.23 | 86 | 1010.1 |
| 20260905031504 | 25 | 337 | 0.0 | 0.0 | 0.00 | 0.23 | 0.23 | 86 | 1010.3 |
| 20260905030046 | 25 | 337 | 0.0 | 0.0 | 0.00 | 0.23 | 0.23 | 86 | 1010.4 |
| 20260905024513 | 26 | 337 | 0.0 | 0.0 | 0.00 | 0.23 | 0.23 | 85 | 1010.3 |
| 20260905023059 | 26 | 336 | 0.0 | 0.0 | 0.00 | 0.23 | 0.23 | 85 | 1010.3 |
| 20260905021535 | 26 | 330 | 0.0 | 0.0 | 0.00 | 0.23 | 0.23 | 84 | 1010.2 |
| 20260905020108 | 26 | 331 | 0.0 | 0.0 | 0.00 | 0.23 | 0.23 | 84 | 1010.2 |
| 20260905014533 | 26 | 241 | 0.0 | 0.0 | 0.00 | 0.23 | 0.23 | 84 | 1010.4 |
| 20260905013008 | 25 | 144 | 0.0 | 0.0 | 0.00 | 0.23 | 0.23 | 83 | 1010.4 |
| 20260905011557 | 26 | 91 | 0.0 | 0.0 | 0.00 | 0.23 | 0.23 | 83 | 1010.3 |
| 20260905010025 | 26 | 77 | 0.0 | 0.0 | 0.00 | 0.23 | 0.23 | 82 | 1010.3 |
| 20260905004642 | 26 | 35 | 0.0 | 0.0 | 0.00 | 0.23 | 0.23 | 81 | 1010.4 |
| 20260905003028 | 26 | 35 | 0.0 | 0.0 | 0.00 | 0.23 | 0.23 | 79 | 1010.1 |
| 20260905001610 | 26 | 70 | 0.0 | 1.6 | 0.00 | 0.23 | 0.23 | 78 | 1010.0 |
| 20260905000047 | 27 | 23 | 0.0 | 0.0 | 0.00 | 0.23 | 0.23 | 76 | 1009.8 |
| 20260904234504 | 27 | 44 | 0.0 | 0.0 | 0.00 | 0.23 | 0.23 | 75 | 1009.6 |
| 20260904233052 | 27 | 357 | 0.0 | 1.6 | 0.00 | 0.23 | 0.23 | 75 | 1009.8 |
| 20260904231518 | 27 | 144 | 0.0 | 1.6 | 0.00 | 0.23 | 0.23 | 74 | 1009.9 |
| 20260904230109 | 27 | 98 | 0.0 | 1.6 | 0.00 | 0.23 | 0.23 | 73 | 1010.1 |
| 20260904224530 | 28 | 169 | 0.0 | 4.8 | 0.00 | 0.23 | 0.23 | 72 | 1010.3 |
| 20260904223002 | 28 | 49 | 0.0 | 3.2 | 0.00 | 0.23 | 0.23 | 71 | 1010.4 |
| 20260904221549 | 28 | 50 | 0.0 | 4.8 | 0.00 | 0.23 | 0.23 | 69 | 1010.3 |
| 20260904220012 | 28 | 27 | 0.0 | 9.7 | 0.00 | 0.23 | 0.23 | 68 | 1010.2 |
| 20260904214610 | 29 | 155 | 0.0 | 4.8 | 0.00 | 0.23 | 0.23 | 66 | 1010.2 |
| 20260904213039 | 30 | 50 | 0.0 | 6.4 | 0.00 | 0.23 | 0.23 | 66 | 1010.2 |
| 20260904211504 | 30 | 188 | 1.6 | 6.4 | 0.00 | 0.23 | 0.23 | 65 | 1010.1 |
| 20260904210050 | 30 | 120 | 1.6 | 8.0 | 0.00 | 0.23 | 0.23 | 64 | 1010.2 |
| 20260904204521 | 30 | 50 | 0.0 | 4.8 | 0.00 | 0.23 | 0.23 | 63 | 1010.1 |
| 20260904203104 | 30 | 157 | 0.0 | 8.0 | 0.00 | 0.23 | 0.23 | 63 | 1010.1 |
| 20260904201533 | 30 | 165 | 1.6 | 9.7 | 0.00 | 0.23 | 0.23 | 62 | 1010.2 |
| 20260904200125 | 31 | 185 | 1.6 | 8.0 | 0.00 | 0.23 | 0.23 | 62 | 1010.5 |
| 20260904194602 | 31 | 183 | 1.6 | 9.7 | 0.00 | 0.23 | 0.23 | 60 | 1010.6 |
| 20260904193012 | 31 | 49 | 0.0 | 4.8 | 0.00 | 0.23 | 0.23 | 62 | 1010.7 |
| 20260904191553 | 30 | 79 | 1.6 | 8.0 | 0.00 | 0.23 | 0.23 | 63 | 1011.0 |
| 20260904190025 | 32 | 105 | 1.6 | 6.4 | 0.00 | 0.23 | 0.23 | 61 | 1011.0 |
| 20260904184615 | 32 | 49 | 0.0 | 6.4 | 0.00 | 0.23 | 0.23 | 60 | 1011.0 |
| 20260904183027 | 32 | 12 | 0.0 | 6.4 | 0.00 | 0.23 | 0.23 | 62 | 1011.2 |
| 20260904181616 | 31 | 34 | 0.0 | 4.8 | 0.00 | 0.23 | 0.23 | 62 | 1011.4 |
| 20260904180044 | 32 | 65 | 0.0 | 3.2 | 0.00 | 0.23 | 0.23 | 57 | 1011.4 |
| 20260904174505 | 32 | 141 | 0.0 | 6.4 | 0.00 | 0.23 | 0.23 | 57 | 1011.3 |
| 20260904173044 | 32 | 160 | 0.0 | 4.8 | 0.00 | 0.23 | 0.23 | 57 | 1011.4 |
| 20260904171523 | 31 | 58 | 0.0 | 3.2 | 0.00 | 0.23 | 0.23 | 60 | 1011.4 |
| 20260904170056 | 31 | 51 | 1.6 | 11.3 | 0.00 | 0.23 | 0.23 | 60 | 1011.4 |
| 20260904164526 | 31 | 2 | 1.6 | 6.4 | 0.00 | 0.23 | 0.23 | 61 | 1011.5 |
| 20260904163002 | 31 | 97 | 0.0 | 11.3 | 0.00 | 0.23 | 0.23 | 62 | 1011.5 |
| 20260904161553 | 31 | 255 | 0.0 | 6.4 | 0.00 | 0.23 | 0.23 | 63 | 1011.6 |
| 20260904160013 | 31 | 27 | 1.6 | 8.0 | 0.00 | 0.23 | 0.23 | 62 | 1011.8 |
| 20260904154551 | 30 | 45 | 1.6 | 9.7 | 0.00 | 0.23 | 0.23 | 64 | 1011.8 |
| 20260904153019 | 30 | 51 | 1.6 | 11.3 | 0.00 | 0.23 | 0.23 | 65 | 1011.7 |
| 20260904151609 | 30 | 276 | 3.2 | 12.9 | 0.00 | 0.23 | 0.23 | 66 | 1011.9 |
| 20260904150034 | 29 | 149 | 1.6 | 14.5 | 0.00 | 0.23 | 0.23 | 67 | 1011.8 |
| 20260904144506 | 30 | 9 | 1.6 | 8.0 | 0.00 | 0.23 | 0.23 | 67 | 1011.8 |
| 20260904143044 | 28 | 243 | 0.0 | 8.0 | 0.00 | 0.23 | 0.23 | 69 | 1011.7 |
| 20260904141519 | 28 | 235 | 1.6 | 9.7 | 0.00 | 0.23 | 0.23 | 70 | 1011.7 |
| 20260904134530 | 27 | 269 | 1.6 | 8.0 | 0.00 | 0.25 | 0.23 | 74 | 1011.4 |
| 20260904133104 | 27 | 76 | 1.6 | 8.0 | 0.00 | 0.25 | 0.23 | 75 | 1011.4 |
| 20260904131532 | 26 | 231 | 3.2 | 8.0 | 0.00 | 0.25 | 0.23 | 78 | 1011.5 |
| 20260904130008 | 26 | 356 | 1.6 | 11.3 | 0.00 | 0.25 | 0.23 | 80 | 1011.5 |
| 20260904124544 | 25 | 158 | 1.6 | 11.3 | 0.00 | 0.30 | 0.23 | 82 | 1011.4 |
| 20260904123014 | 25 | 51 | 1.6 | 11.3 | 0.00 | 0.30 | 0.23 | 86 | 1011.5 |
| 20260904121554 | 23 | 172 | 3.2 | 11.3 | 0.00 | 0.30 | 0.23 | 89 | 1011.5 |
| 20260904120038 | 23 | 44 | 3.2 | 9.7 | 0.00 | 0.30 | 0.23 | 91 | 1011.6 |
| 20260904114501 | 23 | 277 | 1.6 | 8.0 | 0.00 | 0.30 | 0.23 | 91 | 1011.4 |
| 20260904113044 | 23 | 172 | 1.6 | 6.4 | 0.00 | 0.30 | 0.23 | 91 | 1011.5 |
| 20260904111513 | 23 | 130 | 0.0 | 4.8 | 0.00 | 0.30 | 0.23 | 92 | 1011.2 |
| 20260904110052 | 23 | 43 | 0.0 | 3.2 | 0.00 | 0.30 | 0.23 | 92 | 1011.3 |
| 20260904104534 | 23 | 51 | 0.0 | 3.2 | 0.00 | 0.53 | 0.23 | 92 | 1010.8 |
| 20260904103105 | 23 | 43 | 0.0 | 3.2 | 0.00 | 0.53 | 0.23 | 92 | 1010.8 |
| 20260904101539 | 23 | 105 | 0.0 | 3.2 | 0.00 | 0.53 | 0.23 | 91 | 1011.0 |
| 20260904100003 | 23 | 185 | 0.0 | 4.8 | 0.00 | 0.53 | 0.23 | 91 | 1010.9 |
| 20260904094554 | 23 | 252 | 0.0 | 4.8 | 0.00 | 0.99 | 0.23 | 91 | 1011.1 |
| 20260904093111 | 23 | 296 | 0.0 | 4.8 | 0.00 | 0.99 | 0.23 | 90 | 1011.0 |
| 20260904091539 | 23 | 172 | 0.0 | 6.4 | 0.00 | 0.99 | 0.23 | 89 | 1011.2 |
| 20260904090014 | 23 | 57 | 0.0 | 4.8 | 0.00 | 0.99 | 0.23 | 88 | 1011.1 |
| 20260904084545 | 23 | 96 | 1.6 | 11.3 | 0.00 | 1.17 | 0.23 | 88 | 1011.3 |
| 20260904083019 | 23 | 64 | 1.6 | 8.0 | 0.03 | 1.17 | 0.23 | 90 | 1011.5 |
| 20260904081559 | 23 | 33 | 1.6 | 6.4 | 0.18 | 1.17 | 0.23 | 90 | 1011.5 |
| 20260904080030 | 23 | 60 | 0.0 | 8.0 | 0.20 | 1.17 | 0.23 | 90 | 1011.5 |
| 20260904074610 | 23 | 25 | 0.0 | 4.8 | 0.23 | 3.02 | 0.23 | 90 | 1011.7 |
| 20260904073035 | 23 | 243 | 0.0 | 6.4 | 0.20 | 3.00 | 0.20 | 88 | 1011.8 |
| 20260904071501 | 24 | 81 | 3.2 | 11.3 | 0.03 | 2.82 | 0.03 | 85 | 1011.7 |
| 20260904070044 | 25 | 72 | 1.6 | 9.7 | 0.03 | 2.82 | 0.03 | 85 | 1011.3 |
| 20260904064508 | 25 | 111 | 1.6 | 8.0 | 0.00 | 2.79 | 0.00 | 85 | 1011.3 |
| 20260904063053 | 26 | 300 | 4.8 | 19.3 | 0.00 | 2.79 | 0.00 | 89 | 1011.2 |
| 20260904061527 | 26 | 160 | 0.0 | 3.2 | 0.00 | 2.79 | 0.00 | 91 | 1011.0 |
| 20260904060116 | 26 | 151 | 0.0 | 0.0 | 0.00 | 2.79 | 0.00 | 90 | 1011.1 |
| 20260904054523 | 26 | 136 | 0.0 | 3.2 | 0.00 | 2.79 | 0.00 | 90 | 1011.0 |